TimeEST,TemperatureF,Dew PointF,Humidity,Sea Level PressureIn,VisibilityMPH,Wind Direction,Wind SpeedMPH,Gust SpeedMPH,PrecipitationIn,Events,Conditions,WindDirDegrees,DateUTC
12:55 AM,55.9,55.6,99,29.88,7.0,Calm,Calm,-,N/A,,Mostly Cloudy,0,2011-12-07 05:55:00
1:16 AM,55.4,55.4,100,29.88,7.0,East,3.5,-,N/A,,Overcast,90,2011-12-07 06:16:00
1:26 AM,55.4,55.4,100,29.88,1.2,East,3.5,-,N/A,,Overcast,90,2011-12-07 06:26:00
1:37 AM,55.4,55.4,100,29.89,0.1,Variable,4.6,-,N/A,Fog,Fog,0,2011-12-07 06:37:00
1:55 AM,52.2,52.0,99,29.89,2.0,North,9.2,-,N/A,,Overcast,360,2011-12-07 06:55:00
2:14 AM,50.0,48.2,94,29.91,2.5,North,6.9,-,N/A,Rain,Light Rain,360,2011-12-07 07:14:00
2:55 AM,48.0,47.8,99,29.89,7.0,NE,5.8,-,0.03,,Overcast,50,2011-12-07 07:55:00
3:55 AM,47.3,47.1,99,29.88,7.0,North,3.5,-,N/A,,Overcast,360,2011-12-07 08:55:00
4:55 AM,46.4,46.2,99,29.89,7.0,North,3.5,-,N/A,,Overcast,360,2011-12-07 09:55:00
5:10 AM,46.4,46.4,100,29.89,7.0,NNE,5.8,-,N/A,Rain,Light Rain,30,2011-12-07 10:10:00
5:55 AM,45.3,45.1,99,29.89,7.0,ENE,4.6,-,0.00,Rain,Light Rain,70,2011-12-07 10:55:00
6:21 AM,44.6,44.6,100,29.90,7.0,Calm,Calm,-,N/A,,Overcast,0,2011-12-07 11:21:00
6:55 AM,45.0,44.8,99,29.89,7.0,NNE,3.5,-,0.00,,Overcast,20,2011-12-07 11:55:00
7:16 AM,44.6,44.6,100,29.88,1.5,NNE,6.9,-,N/A,,Overcast,30,2011-12-07 12:16:00
7:55 AM,43.5,43.3,99,29.87,2.0,ENE,5.8,-,N/A,,Overcast,60,2011-12-07 12:55:00
8:26 AM,42.8,42.8,100,29.86,7.0,NE,4.6,-,N/A,,Overcast,40,2011-12-07 13:26:00
8:55 AM,43.0,42.8,99,29.86,7.0,NE,4.6,-,N/A,,Overcast,50,2011-12-07 13:55:00
9:30 AM,42.8,42.8,100,29.88,2.0,NNE,5.8,-,N/A,Rain,Light Rain,30,2011-12-07 14:30:00
9:55 AM,43.0,42.8,99,29.87,2.0,NNE,6.9,-,0.01,Rain,Light Rain,30,2011-12-07 14:55:00
10:55 AM,43.2,43.0,99,29.85,3.0,NE,3.5,-,0.04,Rain,Light Rain,50,2011-12-07 15:55:00
11:37 AM,42.8,42.8,100,29.83,3.0,North,5.8,-,N/A,Rain,Light Rain,10,2011-12-07 16:37:00
11:55 AM,43.0,42.8,99,29.82,5.0,NE,4.6,-,0.03,Rain,Light Rain,40,2011-12-07 16:55:00
12:55 PM,42.8,42.6,99,29.79,3.0,NNE,3.5,-,0.04,Rain,Light Rain,30,2011-12-07 17:55:00
1:55 PM,43.0,42.8,99,29.77,6.0,NNE,3.5,-,0.08,Rain,Light Rain,30,2011-12-07 18:55:00
2:55 PM,42.6,42.4,99,29.76,6.0,NNE,4.6,-,0.06,Rain,Light Rain,20,2011-12-07 19:55:00
3:55 PM,42.1,41.5,98,29.75,6.0,NNE,6.9,-,0.06,Rain,Light Rain,30,2011-12-07 20:55:00
4:55 PM,41.7,41.2,98,29.73,4.0,NNE,5.8,-,0.06,Rain,Light Rain,20,2011-12-07 21:55:00
5:55 PM,41.2,40.6,98,29.72,6.0,NE,4.6,-,0.10,Rain,Light Rain,40,2011-12-07 22:55:00
6:55 PM,41.4,40.8,98,29.72,6.0,North,6.9,-,0.10,Rain,Light Rain,360,2011-12-07 23:55:00
7:55 PM,40.6,40.1,98,29.65,5.0,NE,6.9,-,0.05,Rain,Light Rain,50,2011-12-08 00:55:00
8:55 PM,40.5,39.9,98,29.63,3.0,North,8.1,-,0.09,Rain,Rain,360,2011-12-08 01:55:00
9:55 PM,40.3,39.7,98,29.58,4.0,NNE,9.2,-,0.13,Rain,Rain,20,2011-12-08 02:55:00
10:55 PM,39.7,39.2,98,29.60,4.0,NNW,8.1,-,0.13,Rain,Rain,330,2011-12-08 03:55:00
11:28 PM,39.2,39.2,100,29.50,6.0,NNE,12.7,-,N/A,Rain,Light Rain,20,2011-12-08 04:28:00
11:44 PM,39.2,39.2,100,29.50,7.0,North,8.1,-,N/A,Rain,Light Rain,360,2011-12-08 04:44:00
11:55 PM,39.6,39.0,98,29.48,8.0,NNW,9.2,21.9,0.05,Rain,Light Rain,330,2011-12-08 04:55:00